K9UO Weather Reports


time (UTC)temp
F
wind
direction
speed
knots
gust
knots
rain 1hr
in
rain 24hr
in
rain mn
in
humidity
%
barometer
mb
20260506153056 52 109 0.9 7.8 0.00 0.35 0.05 51 1013.6
20260506151552 52 13 2.6 7.8 0.00 0.35 0.05 49 1013.5
20260506150058 51 15 3.5 8.7 0.00 0.35 0.05 50 1013.3
20260506144600 50 9 3.5 9.6 0.00 0.35 0.05 48 1013.2
20260506143049 50 15 4.3 7.0 0.00 0.35 0.05 40 1013.1
20260506141535 49 346 5.2 7.0 0.00 0.35 0.05 34 1012.7
20260506140046 49 9 2.6 7.0 0.00 0.35 0.05 18 1012.8
20260506134532 45 269 2.6 7.0 0.00 0.35 0.05 1 1012.8
20260506133022 46 313 4.3 7.0 0.00 0.35 0.05 1 1012.7
20260506131519 46 11 2.6 7.8 0.00 0.35 0.05 1 1012.6
20260506130013 46 342 3.5 6.1 0.00 0.35 0.05 1 1012.5
20260506124509 45 22 0.0 4.3 0.00 0.35 0.05 1 1012.3
20260506123004 45 272 0.9 3.5 0.00 0.35 0.05 1 1012.1
20260506121602 45 230 0.9 2.6 0.00 0.35 0.05 1 1011.9
20260506114552 44 242 0.0 2.6 0.00 0.35 0.05 1 1011.4
20260506113051 44 269 1.7 2.6 0.00 0.35 0.05 1 1011.1
20260506111542 43 254 0.0 1.7 0.01 0.35 0.05 1 1011.0
20260506110042 43 290 0.0 1.7 0.01 0.35 0.05 1 1010.4
20260506104533 43 355 0.0 0.9 0.01 0.35 0.05 1 1010.3
20260506103029 43 355 0.0 1.7 0.01 0.35 0.05 1 1010.1
20260506101529 43 355 0.0 0.9 0.00 0.34 0.04 1 1010.2
20260506100021 43 355 0.0 3.5 0.00 0.34 0.04 1 1010.1
20260506094516 43 360 0.9 3.5 0.00 0.35 0.04 1 1009.6
20260506093011 43 5 0.9 2.6 0.00 0.35 0.04 1 1009.9
20260506091506 43 5 0.0 1.7 0.00 0.35 0.04 1 1009.2
20260506090004 43 9 0.0 0.0 0.00 0.35 0.04 1 1009.5
20260506084601 43 5 0.0 1.7 0.00 0.43 0.04 1 1009.8
20260506083058 43 9 0.9 4.3 0.00 0.43 0.04 1 1009.3
20260506081603 42 248 0.0 1.7 0.00 0.43 0.04 1 1009.0
20260506073038 43 14 0.9 3.5 0.00 0.47 0.04 1 1009.7
20260506071532 42 17 0.0 0.0 0.01 0.47 0.04 1 1009.4
20260506061514 43 17 0.0 0.9 0.01 0.48 0.03 1 1009.6
20260506044552 44 10 2.6 5.2 0.02 0.47 0.02 1 1009.2
20260506043042 45 13 0.9 5.2 0.02 0.46 0.01 1 1009.3
20260506041542 45 11 1.7 4.3 0.02 0.46 0.01 1 1009.5
20260506040035 45 19 0.0 0.0 0.02 0.45 0.00 1 1009.2
20260506034530 45 19 0.0 5.2 0.02 0.45 0.45 1 1009.0
20260506033028 46 9 2.6 7.0 0.01 0.44 0.44 1 1009.0
20260506031538 46 74 0.0 1.7 0.02 0.44 0.44 1 1009.2
20260506030016 46 73 0.0 1.7 0.01 0.43 0.43 1 1009.2
20260506024515 46 64 0.9 2.6 0.02 0.43 0.43 1 1009.1
20260506023007 46 62 0.9 3.5 0.03 0.43 0.43 1 1008.7
20260506021503 47 61 0.0 3.5 0.03 0.42 0.42 1 1008.9
20260506020059 47 63 0.0 0.9 0.04 0.42 0.42 1 1008.8
20260506014555 47 63 0.0 0.9 0.04 0.41 0.41 1 1008.6
20260506013103 47 62 0.0 0.9 0.05 0.40 0.40 1 1008.4
20260506011546 47 62 0.0 1.7 0.05 0.39 0.39 1 1008.0
20260506010053 47 59 0.0 1.7 0.05 0.38 0.38 1 1007.9
20260506004536 47 37 0.9 1.7 0.04 0.37 0.37 1 1008.1
20260506003032 47 360 2.6 4.3 0.03 0.35 0.35 1 1008.5
20260506001530 47 12 0.0 3.5 0.03 0.34 0.34 1 1008.4
20260506000023 47 12 0.0 0.0 0.02 0.33 0.33 1 1008.2
20260505234519 47 11 0.0 3.5 0.03 0.33 0.33 1 1008.1
20260505233014 47 15 0.9 7.8 0.02 0.32 0.32 1 1008.0
20260505231513 48 19 1.7 6.1 0.02 0.31 0.31 1 1008.3
20260505230005 48 18 4.3 9.6 0.02 0.31 0.31 1 1008.3
20260505224501 49 5 4.3 7.8 0.02 0.30 0.30 1 1008.3
20260505223057 49 360 4.3 8.7 0.02 0.30 0.30 1 1008.2
20260505221552 49 11 3.5 8.7 0.02 0.28 0.28 1 1008.2
20260505220048 49 351 4.3 10.4 0.02 0.28 0.28 1 1008.1
20260505214544 50 18 6.1 12.2 0.02 0.28 0.28 1 1007.9
20260505213038 50 355 5.2 7.8 0.02 0.28 0.28 1 1007.6
20260505211535 50 16 2.6 7.0 0.02 0.27 0.27 1 1007.4
20260505210030 51 5 2.6 9.6 0.03 0.27 0.27 1 1007.3
20260505204525 52 355 6.1 7.8 0.02 0.26 0.26 1 1007.1
20260505203029 52 14 0.9 2.6 0.03 0.25 0.25 1 1006.8
20260505201518 52 24 0.0 1.7 0.06 0.25 0.25 1 1006.8
20260505200012 52 22 0.0 1.7 0.06 0.24 0.24 1 1006.7
20260505194507 52 18 0.0 3.5 0.08 0.24 0.24 1 1007.3
20260505193003 52 9 0.9 1.7 0.06 0.22 0.22 1 1007.6
20260505191608 52 13 1.7 5.2 0.03 0.19 0.19 1 1007.7
20260505184550 51 5 0.9 4.3 0.00 0.16 0.16 1 1007.5
20260505183109 51 5 2.6 4.3 0.00 0.16 0.16 1 1007.3
20260505181541 50 5 1.7 4.3 0.00 0.16 0.16 1 1007.5
20260505180038 50 351 1.7 3.5 0.00 0.16 0.16 1 1007.8
20260505174537 50 355 1.7 4.3 0.00 0.16 0.16 1 1007.7
20260505173037 51 5 2.6 4.3 0.00 0.16 0.16 1 1007.5
20260505171536 51 16 4.3 7.0 0.00 0.16 0.16 1 1007.8
20260505170022 53 355 4.3 7.0 0.00 0.16 0.16 1 1007.6
20260505164515 54 16 4.3 7.8 0.01 0.16 0.16 1 1007.7
20260505163011 58 234 3.5 6.1 0.01 0.16 0.16 1 1007.5
20260505161506 57 250 1.7 7.0 0.01 0.16 0.16 1 1007.7